CZ-4C R/B (44210 NORAD) Tracking and Keplerian Element Data

This shows tracking and keplerian element data for the satellite.

Feedback or suggestion? Click here.




ElementValue
Catalog44210
NameCZ-4C R/B
Epoch Orbit405
Epoch Day145.92733976
Epoch Year2019
RAAN155.0517
Inclination97.5233
Eccentricity0.0165629
Argument of Perigee274.9134
Mean Anonmoly83.331
Mean Motion15.59708484
Decay Rate0.00014443
L11 44210U 19024D 19145.92733976 .00014443 23437-5 96349-4 0 9998
L22 44210 97.5233 155.0517 0165629 274.9134 83.3310 15.59708484 4053

Live tracking and technical data element details for CZ-4C R/B (NORAD 44210). CZ-4C R/B can be tracked NOW for your location showing map with azimuth and elevation plus other details from your city location.

Track the satellite on the map from your city or location and see movement details for azimuth, elevation, latitude, longitude, range, height, and movement on the map or in text.







IsCatalogInMostPopularTable: catalog: 44210, numindb: 10
Update: records affected: 1



GetName: 44210 CZ-4C R/B

Hit Count: updated at: Sun, 26 May 2019 07:12:27 GMT